CAPE
0 0 0 0 52 552 952 1102 1144 460 426 1046 825 361 445 216 192 488 504 295 384 428 302 8 17 20 19 26 10 14 47 142
0 0 0 0 0 405 819 1001 1190 390 662 758 524 235 66 319 154 169 274 397 287 262 110 5 4 15 30 19 13 9 52 67
0 0 0 0 0 112 621 870 1116 837 979 859 547 336 196 103 105 176 402 419 274 232 40 26 4 5 26 16 5 20 40 58
0 0 0 0 0 9 424 701 1056 888 974 791 474 347 67 88 61 1 81 312 176 35 29 20 34 1 11 3 6 21 0 0
0 0 0 0 0 0 231 514 895 858 968 740 366 184 75 77 40 1 7 50 47 48 41 43 7 2 4 25 10 8 4 0
0 0 0 0 0 7 292 475 772 848 958 706 500 457 318 102 18 9 8 28 60 54 23 30 18 43 25 22 14 7 2 13
0 0 0 0 0 14 454 533 774 831 840 711 614 523 237 30 8 11 18 19 24 29 67 8 30 14 36 12 14 2 5 32
0 0 0 0 0 330 579 614 765 753 381 545 541 266 225 53 3 3 8 5 22 25 41 67 3 30 27 7 22 12 1 4
52 36 0 0 36 545 637 652 663 447 348 402 337 209 277 34 2 2 5 12 24 27 51 56 34 6 0 32 41 17 44 12
40 248 51 0 274 618 720 560 504 530 352 227 334 375 156 6 5 5 7 12 0 3 36 0 1 2 20 12 1 10 36 33
117 404 162 0 416 745 644 464 405 490 186 225 346 238 146 8 9 4 12 18 0 0 0 0 3 7 6 3 3 4 15 16
44 48 339 105 381 670 409 355 398 382 107 268 328 208 127 10 11 9 11 19 0 0 0 0 0 0 7 5 1 14 8 6
5 180 95 174 379 404 295 358 254 147 165 296 298 226 80 9 14 13 9 6 3 0 0 0 0 0 0 0 0 0 2 10
227 168 10 75 302 253 56 12 47 249 156 277 265 243 5 8 12 16 10 8 3 0 0 0 0 0 0 0 0 0 0 0
128 142 18 112 62 51 88 40 108 318 331 278 215 138 3 9 14 14 11 7 5 0 9 0 0 0 1 0 0 0 0 4
42 249 35 44 113 206 179 284 540 478 255 202 185 53 0 0 4 7 10 10 7 7 8 18 12 0 0 0 0 0 4 0
0 198 189 101 34 42 63 185 214 222 235 194 77 38 33 25 10 2 6 5 7 8 2 17 23 0 0 0 0 0 0 0
0 0 174 218 139 184 111 175 222 187 173 139 61 13 15 22 64 39 11 11 19 5 8 12 11 0 0 0 0 3 21 15
0 0 0 2 82 56 28 34 153 104 74 52 47 19 0 4 22 58 65 60 28 10 10 3 3 10 10 5 6 15 24 24
CIN
0 0 0 0 -62 -138 -148 -176 -178 -280 -254 -77 -84 -171 -92 -83 -85 -22 -1 -1 0 0 0 -14 -40 -34 -0 0 -0 0 -4 -0
0 0 0 0 0 -159 -189 -192 -169 -327 -230 -160 -169 -226 -202 -68 -94 -56 -11 0 -0 0 -9 -0 -7 -29 0 0 0 0 0 -2
0 0 0 0 0 -163 -183 -185 -178 -279 -207 -166 -170 -196 -176 -164 -115 -56 -2 -1 -2 -21 -15 -4 -7 0 -16 -1 -0 0 0 0
0 0 0 0 0 -138 -186 -179 -168 -236 -201 -179 -204 -184 -244 -177 -193 -6 -60 -0 -24 -0 -0 -2 -2 -0 -0 -9 -17 -11 0 0
0 0 0 0 0 -35 -174 -172 -182 -214 -191 -230 -299 -303 -264 -178 -201 0 0 -58 -8 -0 0 -22 -2 0 -1 -1 -2 -5 -0 0
0 0 0 0 0 -187 -182 -200 -177 -222 -218 -253 -268 -203 -166 -158 -60 0 0 0 0 0 -0 -6 -1 -0 -8 0 -0 0 -0 -3
0 0 0 0 0 -185 -190 -237 -218 -237 -256 -261 -244 -199 -200 -212 0 -9 0 0 0 0 0 -1 -14 -8 0 0 -3 -1 0 -0
0 0 0 0 0 -196 -236 -252 -247 -301 -407 -311 -262 -273 -200 -199 0 0 0 0 0 0 0 0 0 -6 -6 -1 0 0 -0 -4
-131 -165 0 0 -191 -216 -260 -272 -281 -398 -422 -353 -305 -94 -167 -212 0 0 0 0 0 0 0 -0 0 -0 -0 -0 0 0 0 -0
-60 -43 -150 0 -176 -215 -234 -282 -313 -351 -393 -341 -144 -215 -162 0 0 0 0 0 0 0 0 0 0 0 -2 0 0 0 -0 0
-54 -31 -124 0 -161 -186 -259 -321 -361 -341 -405 -297 -131 -234 -76 0 0 0 0 0 0 0 0 0 0 0 0 0 -0 -1 -3 -0
-29 -126 -103 -238 -215 -200 -334 -352 -312 -342 -428 -236 -125 -97 -80 0 0 0 0 0 0 0 0 0 0 0 0 0 -0 0 -0 -1
-46 -37 -164 -215 -190 -260 -337 -278 -320 -391 -333 -167 -109 -90 -99 0 0 0 0 0 0 0 0 0 0 0 0 0 0 0 -1 -1
-2 -21 -149 -214 -186 -222 -312 -300 -382 -283 -279 -140 -94 -53 -105 0 0 0 0 0 0 0 0 0 0 0 0 0 0 0 0 0
-9 -6 -85 -118 -245 -233 -249 -276 -250 -166 -110 -90 -71 -55 -49 0 0 0 0 0 0 0 0 0 0 0 -0 0 0 0 0 0
-17 0 -65 -97 -128 -152 -192 -152 -83 -62 -80 -71 -53 -54 0 0 0 0 0 0 0 0 0 0 0 0 0 0 0 0 -4 -1
0 -0 0 -21 -85 -117 -103 -90 -79 -56 -44 -36 -39 -53 -46 -41 -59 0 0 0 0 0 0 0 0 0 0 0 0 0 0 0
0 0 -0 0 -3 -7 -8 -8 -20 -32 -25 -30 -24 -50 -48 -20 -15 -9 0 0 0 0 0 0 0 0 0 0 0 0 0 0
0 0 0 -11 -9 -3 -4 -1 0 -0 -9 -6 -4 -5 -1 -39 -24 -11 -19 -33 -50 -62 -77 -67 -26 -80 -38 -36 -65 -50 -50 -38
Wind_Speed
nan nan nan nan nan 29 31 31 34 30 29 26 28 28 25 20 21 22 25 24 25 21 21 nan nan nan nan nan nan nan nan 44
nan nan nan nan nan 31 29 31 35 33 28 28 28 29 nan 19 21 24 25 24 25 22 22 nan nan nan nan nan nan nan nan nan
nan nan nan nan nan 36 33 30 34 34 29 29 28 29 25 18 22 23 23 22 24 21 nan nan nan nan nan nan nan nan nan nan
nan nan nan nan nan nan 30 32 33 31 29 30 30 31 nan nan nan nan nan 20 23 nan nan nan nan nan nan nan nan nan nan nan
nan nan nan nan nan nan 32 32 36 33 28 31 32 31 nan nan nan nan nan nan nan nan nan nan nan nan nan nan nan nan nan nan
nan nan nan nan nan nan 33 33 36 32 28 29 29 29 25 22 nan nan nan nan nan nan nan nan nan nan nan nan nan nan nan nan
nan nan nan nan nan nan 33 31 32 29 27 29 29 30 28 nan nan nan nan nan nan nan nan nan nan nan nan nan nan nan nan nan
nan nan nan nan nan 35 31 29 30 30 27 28 30 32 28 nan nan nan nan nan nan nan nan nan nan nan nan nan nan nan nan nan
nan nan nan nan nan 31 28 25 30 27 28 28 32 31 29 nan nan nan nan nan nan nan nan nan nan nan nan nan nan nan nan nan
nan 33 nan nan 26 25 27 30 28 29 24 29 34 31 30 nan nan nan nan nan nan nan nan nan nan nan nan nan nan nan nan nan
37 36 37 nan 29 31 35 34 35 24 24 32 33 33 30 nan nan nan nan nan nan nan nan nan nan nan nan nan nan nan nan nan
nan nan 40 41 36 37 38 36 38 26 28 35 33 32 30 nan nan nan nan nan nan nan nan nan nan nan nan nan nan nan nan nan
nan 44 nan 45 40 41 40 48 34 32 34 37 34 31 nan nan nan nan nan nan nan nan nan nan nan nan nan nan nan nan nan nan
40 44 nan nan 46 48 nan nan nan 39 39 36 33 30 nan nan nan nan nan nan nan nan nan nan nan nan nan nan nan nan nan nan
40 44 nan 50 nan nan nan nan 39 40 37 36 34 31 nan nan nan nan nan nan nan nan nan nan nan nan nan nan nan nan nan nan
nan 44 nan nan 52 50 54 45 36 40 38 38 34 nan nan nan nan nan nan nan nan nan nan nan nan nan nan nan nan nan nan nan
nan 42 49 49 nan nan nan 53 56 57 53 50 nan nan nan nan nan nan nan nan nan nan nan nan nan nan nan nan nan nan nan nan
nan nan 49 50 56 56 61 63 58 58 57 56 nan nan nan nan nan nan nan nan nan nan nan nan nan nan nan nan nan nan nan nan
nan nan nan nan nan nan nan nan 61 66 nan nan nan nan nan nan nan nan nan nan nan nan nan nan nan nan nan nan nan nan nan nan
Wind_Direction
nan nan nan nan nan 256 268 278 289 295 286 295 294 295 296 295 298 306 318 318 327 320 300 nan nan nan nan nan nan nan nan 224
nan nan nan nan nan 269 269 277 285 281 282 290 290 295 nan 290 293 306 313 313 325 314 300 nan nan nan nan nan nan nan nan nan
nan nan nan nan nan 278 272 275 282 285 284 289 289 298 288 287 289 300 308 316 321 322 nan nan nan nan nan nan nan nan nan nan
nan nan nan nan nan nan 275 275 276 278 284 282 282 291 nan nan nan nan nan 316 320 nan nan nan nan nan nan nan nan nan nan nan
nan nan nan nan nan nan 267 269 271 273 282 284 294 295 nan nan nan nan nan nan nan nan nan nan nan nan nan nan nan nan nan nan
nan nan nan nan nan nan 255 261 265 268 278 283 288 294 276 270 nan nan nan nan nan nan nan nan nan nan nan nan nan nan nan nan
nan nan nan nan nan nan 253 257 263 266 273 285 295 295 279 nan nan nan nan nan nan nan nan nan nan nan nan nan nan nan nan nan
nan nan nan nan nan 263 256 251 261 262 277 286 292 291 280 nan nan nan nan nan nan nan nan nan nan nan nan nan nan nan nan nan
nan nan nan nan nan 256 247 254 255 263 275 284 284 290 268 nan nan nan nan nan nan nan nan nan nan nan nan nan nan nan nan nan
nan 212 nan nan 241 242 242 244 250 250 267 276 280 282 273 nan nan nan nan nan nan nan nan nan nan nan nan nan nan nan nan nan
206 203 207 nan 231 237 239 238 243 235 256 271 275 279 272 nan nan nan nan nan nan nan nan nan nan nan nan nan nan nan nan nan
nan nan 208 217 231 235 233 230 238 240 250 265 277 279 273 nan nan nan nan nan nan nan nan nan nan nan nan nan nan nan nan nan
nan 208 nan 222 227 228 227 225 233 234 245 258 273 277 nan nan nan nan nan nan nan nan nan nan nan nan nan nan nan nan nan nan
213 212 nan nan 218 220 nan nan nan 235 243 256 265 268 nan nan nan nan nan nan nan nan nan nan nan nan nan nan nan nan nan nan
216 205 nan 203 nan nan nan nan 233 234 242 254 256 260 nan nan nan nan nan nan nan nan nan nan nan nan nan nan nan nan nan nan
nan 204 nan nan 211 218 216 218 232 235 242 249 251 nan nan nan nan nan nan nan nan nan nan nan nan nan nan nan nan nan nan nan
nan 201 199 208 nan nan nan 216 223 229 234 236 nan nan nan nan nan nan nan nan nan nan nan nan nan nan nan nan nan nan nan nan
nan nan 207 209 208 210 214 219 221 229 235 237 nan nan nan nan nan nan nan nan nan nan nan nan nan nan nan nan nan nan nan nan
nan nan nan nan nan nan nan nan 224 226 nan nan nan nan nan nan nan nan nan nan nan nan nan nan nan nan nan nan nan nan nan nan